Time,TemperatureF,DewpointF,PressureIn,WindDirection,WindDirectionDegrees,WindSpeedMPH,WindSpeedGustMPH,Humidity,HourlyPrecipIn,Conditions,Clouds,dailyrainin,SoftwareType,DateUTC
2013-06-21 00:03:00,79.4,73.0,30.01,SSE,158,0.0,5.0,81,0.00,,,0.00,WeatherTracker,2013-06-21 05:03:00,
2013-06-21 00:08:00,79.4,73.0,30.01,SE,146,0.0,4.0,81,0.00,,,0.00,WeatherTracker,2013-06-21 05:08:00,
2013-06-21 00:13:00,79.3,73.3,30.01,East,90,1.0,4.0,82,0.00,,,0.00,WeatherTracker,2013-06-21 05:13:00,
2013-06-21 00:18:00,79.2,73.2,30.01,SE,138,1.0,6.0,82,0.00,,,0.00,WeatherTracker,2013-06-21 05:18:00,
2013-06-21 00:23:00,79.0,73.0,30.01,South,172,1.0,6.0,82,0.00,,,0.00,WeatherTracker,2013-06-21 05:23:00,
2013-06-21 00:28:00,78.9,73.3,30.01,SSE,155,1.0,4.0,83,0.00,,,0.00,WeatherTracker,2013-06-21 05:28:00,
2013-06-21 00:33:00,78.8,73.2,30.01,NE,51,2.0,4.0,83,0.00,,,0.00,WeatherTracker,2013-06-21 05:33:00,
2013-06-21 00:38:00,78.7,73.1,30.01,SE,146,0.0,5.0,83,0.00,,,0.00,WeatherTracker,2013-06-21 05:38:00,
2013-06-21 00:43:00,78.6,73.0,30.01,South,176,0.0,5.0,83,0.00,,,0.00,WeatherTracker,2013-06-21 05:43:00,
2013-06-21 00:48:00,78.6,73.0,30.00,SW,226,0.0,6.0,83,0.00,,,0.00,WeatherTracker,2013-06-21 05:48:00,
2013-06-21 00:53:00,78.5,73.2,30.00,South,173,0.0,6.0,84,0.00,,,0.00,WeatherTracker,2013-06-21 05:53:00,
2013-06-21 00:58:00,78.4,73.2,30.00,SE,139,1.0,4.0,84,0.00,,,0.00,WeatherTracker,2013-06-21 05:58:00,
2013-06-21 01:03:00,78.3,73.1,30.00,SW,235,0.0,3.0,84,0.00,,,0.00,WeatherTracker,2013-06-21 06:03:00,
2013-06-21 01:08:00,78.3,73.1,30.00,SE,141,0.0,3.0,84,0.00,,,0.00,WeatherTracker,2013-06-21 06:08:00,
2013-06-21 01:13:00,78.2,73.0,30.00,South,169,5.0,5.0,84,0.00,,,0.00,WeatherTracker,2013-06-21 06:13:00,
2013-06-21 01:18:00,78.1,72.9,30.00,SE,134,1.0,5.0,84,0.00,,,0.00,WeatherTracker,2013-06-21 06:18:00,
2013-06-21 01:24:00,78.1,73.2,30.00,SSE,152,0.0,5.0,85,0.00,,,0.00,WeatherTracker,2013-06-21 06:24:00,
2013-06-21 01:29:00,78.1,73.2,30.00,SE,132,0.0,7.0,85,0.00,,,0.00,WeatherTracker,2013-06-21 06:29:00,
2013-06-21 01:34:00,78.0,73.1,30.00,WSW,248,0.0,7.0,85,0.00,,,0.00,WeatherTracker,2013-06-21 06:34:00,
2013-06-21 01:39:00,78.0,73.1,30.00,SE,134,0.0,5.0,85,0.00,,,0.00,WeatherTracker,2013-06-21 06:39:00,
2013-06-21 01:44:00,78.0,73.1,30.00,NW,307,2.0,8.0,85,0.00,,,0.00,WeatherTracker,2013-06-21 06:44:00,
2013-06-21 01:49:00,78.0,73.5,30.00,NE,46,0.0,8.0,86,0.00,,,0.00,WeatherTracker,2013-06-21 06:49:00,
2013-06-21 01:54:00,77.9,73.4,30.00,SE,145,0.0,7.0,86,0.00,,,0.00,WeatherTracker,2013-06-21 06:54:00,
2013-06-21 01:59:00,77.8,73.3,29.99,SW,222,0.0,8.0,86,0.00,,,0.00,WeatherTracker,2013-06-21 06:59:00,
2013-06-21 02:04:00,77.7,73.2,29.99,SE,127,0.0,8.0,86,0.00,,,0.00,WeatherTracker,2013-06-21 07:04:00,
2013-06-21 02:09:00,77.6,73.1,29.99,North,358,0.0,7.0,86,0.00,,,0.00,WeatherTracker,2013-06-21 07:09:00,
2013-06-21 02:14:00,77.4,73.2,29.99,South,183,0.0,4.0,87,0.00,,,0.00,WeatherTracker,2013-06-21 07:14:00,
2013-06-21 02:20:00,77.3,73.1,29.99,SE,141,0.0,4.0,87,0.00,,,0.00,WeatherTracker,2013-06-21 07:20:00,
2013-06-21 02:25:00,77.2,73.0,29.98,East,82,1.0,5.0,87,0.00,,,0.00,WeatherTracker,2013-06-21 07:25:00,
2013-06-21 02:30:00,77.0,73.2,29.98,SE,141,2.0,5.0,88,0.00,,,0.00,WeatherTracker,2013-06-21 07:30:00,
2013-06-21 02:35:00,76.9,73.1,29.98,South,169,1.0,5.0,88,0.00,,,0.00,WeatherTracker,2013-06-21 07:35:00,
2013-06-21 02:40:00,76.8,73.0,29.98,SSE,152,0.0,5.0,88,0.00,,,0.00,WeatherTracker,2013-06-21 07:40:00,
2013-06-21 02:45:00,76.7,73.2,29.98,SSW,200,0.0,6.0,89,0.00,,,0.00,WeatherTracker,2013-06-21 07:45:00,
2013-06-21 02:50:00,76.6,73.1,29.98,South,188,0.0,6.0,89,0.00,,,0.00,WeatherTracker,2013-06-21 07:50:00,
2013-06-21 02:55:00,76.6,73.1,29.98,SSE,163,0.0,6.0,89,0.00,,,0.00,WeatherTracker,2013-06-21 07:55:00,
2013-06-21 03:00:00,76.6,73.1,29.98,SSE,166,1.0,4.0,89,0.00,,,0.00,WeatherTracker,2013-06-21 08:00:00,
2013-06-21 03:05:00,76.5,73.3,29.98,East,99,0.0,5.0,90,0.00,,,0.00,WeatherTracker,2013-06-21 08:05:00,
2013-06-21 03:10:00,76.5,73.3,29.98,SE,138,0.0,5.0,90,0.00,,,0.00,WeatherTracker,2013-06-21 08:10:00,
2013-06-21 03:15:00,76.5,73.3,29.98,SSE,165,2.0,7.0,90,0.00,,,0.00,WeatherTracker,2013-06-21 08:15:00,
2013-06-21 03:20:00,76.5,73.3,29.98,SE,136,2.0,7.0,90,0.00,,,0.00,WeatherTracker,2013-06-21 08:20:00,
2013-06-21 03:25:00,76.4,73.2,29.98,NE,44,1.0,6.0,90,0.00,,,0.00,WeatherTracker,2013-06-21 08:25:00,
2013-06-21 03:30:00,76.4,73.2,29.98,SSE,158,0.0,6.0,90,0.00,,,0.00,WeatherTracker,2013-06-21 08:30:00,
2013-06-21 03:35:00,76.4,73.6,29.98,SE,134,0.0,4.0,91,0.00,,,0.00,WeatherTracker,2013-06-21 08:35:00,
2013-06-21 03:40:00,76.4,73.6,29.97,SSW,193,0.0,4.0,91,0.00,,,0.00,WeatherTracker,2013-06-21 08:40:00,
2013-06-21 03:46:00,76.4,73.6,29.97,South,191,0.0,5.0,91,0.00,,,0.00,WeatherTracker,2013-06-21 08:46:00,
2013-06-21 03:51:00,76.4,73.6,29.98,East,89,0.0,5.0,91,0.00,,,0.00,WeatherTracker,2013-06-21 08:51:00,
2013-06-21 03:56:00,76.4,73.6,29.98,ESE,103,1.0,5.0,91,0.00,,,0.00,WeatherTracker,2013-06-21 08:56:00,
2013-06-21 04:01:00,76.4,73.6,29.97,West,266,0.0,5.0,91,0.00,,,0.00,WeatherTracker,2013-06-21 09:01:00,
2013-06-21 04:06:00,76.4,73.6,29.97,SE,141,1.0,4.0,91,0.00,,,0.00,WeatherTracker,2013-06-21 09:06:00,
2013-06-21 04:11:00,76.4,73.6,29.97,SE,141,0.0,4.0,91,0.00,,,0.00,WeatherTracker,2013-06-21 09:11:00,
2013-06-21 04:16:00,76.4,73.6,29.97,SW,219,0.0,4.0,91,0.00,,,0.00,WeatherTracker,2013-06-21 09:16:00,
2013-06-21 04:21:00,76.4,73.6,29.97,SSE,149,0.0,4.0,91,0.00,,,0.00,WeatherTracker,2013-06-21 09:21:00,
2013-06-21 04:26:00,76.4,73.6,29.97,ESE,118,0.0,4.0,91,0.00,,,0.00,WeatherTracker,2013-06-21 09:26:00,
2013-06-21 04:31:00,76.3,73.5,29.97,ESE,117,4.0,6.0,91,0.00,,,0.00,WeatherTracker,2013-06-21 09:31:00,
2013-06-21 04:36:00,76.3,73.5,29.97,SW,217,0.0,6.0,91,0.00,,,0.00,WeatherTracker,2013-06-21 09:36:00,
2013-06-21 04:41:00,76.3,73.5,29.97,ESE,110,0.0,4.0,91,0.00,,,0.00,WeatherTracker,2013-06-21 09:41:00,
2013-06-21 04:46:00,76.4,73.2,29.97,SSE,158,1.0,5.0,90,0.00,,,0.00,WeatherTracker,2013-06-21 09:46:00,
2013-06-21 04:51:00,76.4,73.2,29.97,NE,49,1.0,5.0,90,0.00,,,0.00,WeatherTracker,2013-06-21 09:51:00,
2013-06-21 04:56:00,76.4,73.2,29.98,SSE,163,0.0,3.0,90,0.00,,,0.00,WeatherTracker,2013-06-21 09:56:00,
2013-06-21 05:01:00,76.5,73.3,29.98,West,278,3.0,8.0,90,0.00,,,0.00,WeatherTracker,2013-06-21 10:01:00,
2013-06-21 05:06:00,76.6,73.1,29.98,SW,236,0.0,8.0,89,0.00,,,0.00,WeatherTracker,2013-06-21 10:06:00,
2013-06-21 05:11:00,76.6,73.1,29.98,WSW,242,0.0,4.0,89,0.00,,,0.00,WeatherTracker,2013-06-21 10:11:00,
2013-06-21 05:16:00,76.6,73.1,29.98,ENE,76,0.0,6.0,89,0.00,,,0.00,WeatherTracker,2013-06-21 10:16:00,
2013-06-21 05:22:00,76.5,73.0,29.98,East,89,0.0,6.0,89,0.00,,,0.00,WeatherTracker,2013-06-21 10:22:00,
2013-06-21 05:27:00,76.4,72.9,29.98,NNW,338,1.0,4.0,89,0.00,,,0.00,WeatherTracker,2013-06-21 10:27:00,
2013-06-21 05:32:00,76.3,73.1,29.98,SSW,208,0.0,3.0,90,0.00,,,0.00,WeatherTracker,2013-06-21 10:32:00,
2013-06-21 05:37:00,76.3,73.1,29.98,WSW,256,0.0,3.0,90,0.00,,,0.00,WeatherTracker,2013-06-21 10:37:00,
2013-06-21 05:42:00,76.3,73.1,29.98,WSW,248,0.0,1.0,90,0.00,,,0.00,WeatherTracker,2013-06-21 10:42:00,
2013-06-21 05:47:00,76.2,73.0,29.99,SE,133,2.0,2.0,90,0.00,,,0.00,WeatherTracker,2013-06-21 10:47:00,
2013-06-21 05:52:00,76.2,73.0,29.99,WSW,255,0.0,3.0,90,0.00,,,0.00,WeatherTracker,2013-06-21 10:52:00,
2013-06-21 05:57:00,76.1,72.9,29.99,West,273,2.0,4.0,90,0.00,,,0.00,WeatherTracker,2013-06-21 10:57:00,
2013-06-21 06:02:00,76.0,73.2,29.99,WSW,252,0.0,5.0,91,0.00,,,0.00,WeatherTracker,2013-06-21 11:02:00,
2013-06-21 06:07:00,76.0,73.2,29.99,SE,137,3.0,5.0,91,0.00,,,0.00,WeatherTracker,2013-06-21 11:07:00,
2013-06-21 06:12:00,76.0,73.2,29.99,SE,129,1.0,5.0,91,0.00,,,0.00,WeatherTracker,2013-06-21 11:12:00,
2013-06-21 06:17:00,76.0,73.2,30.00,ESE,104,2.0,3.0,91,0.00,,,0.00,WeatherTracker,2013-06-21 11:17:00,
2013-06-21 06:22:00,75.9,73.1,30.00,SSE,158,0.0,3.0,91,0.00,,,0.00,WeatherTracker,2013-06-21 11:22:00,
2013-06-21 06:27:00,75.9,73.1,30.00,ENE,73,0.0,3.0,91,0.00,,,0.00,WeatherTracker,2013-06-21 11:27:00,
2013-06-21 06:32:00,76.0,73.2,30.00,SE,131,0.0,4.0,91,0.00,,,0.00,WeatherTracker,2013-06-21 11:32:00,
2013-06-21 06:37:00,76.0,73.2,30.00,NNW,345,0.0,4.0,91,0.00,,,0.00,WeatherTracker,2013-06-21 11:37:00,
2013-06-21 06:42:00,76.0,73.2,30.00,East,96,0.0,4.0,91,0.00,,,0.00,WeatherTracker,2013-06-21 11:42:00,
2013-06-21 06:47:00,76.1,72.9,29.99,SE,144,3.0,3.0,90,0.00,,,0.00,WeatherTracker,2013-06-21 11:47:00,
2013-06-21 06:52:00,76.1,72.9,29.99,SSW,193,0.0,4.0,90,0.00,,,0.00,WeatherTracker,2013-06-21 11:52:00,
2013-06-21 06:57:00,76.1,73.3,29.99,SE,139,0.0,4.0,91,0.00,,,0.00,WeatherTracker,2013-06-21 11:57:00,
2013-06-21 07:03:00,76.1,73.3,29.99,SE,142,2.0,3.0,91,0.00,,,0.00,WeatherTracker,2013-06-21 12:03:00,
2013-06-21 07:08:00,76.2,73.0,29.99,SE,134,0.0,3.0,90,0.00,,,0.00,WeatherTracker,2013-06-21 12:08:00,
2013-06-21 07:13:00,76.2,73.4,30.00,South,185,1.0,3.0,91,0.00,,,0.00,WeatherTracker,2013-06-21 12:13:00,
2013-06-21 07:18:00,76.3,73.5,30.00,West,275,0.0,3.0,91,0.00,,,0.00,WeatherTracker,2013-06-21 12:18:00,
2013-06-21 07:23:00,76.4,73.2,29.99,West,273,0.0,3.0,90,0.00,,,0.00,WeatherTracker,2013-06-21 12:23:00,
2013-06-21 07:28:00,76.5,73.3,29.99,WSW,242,0.0,3.0,90,0.00,,,0.00,WeatherTracker,2013-06-21 12:28:00,
2013-06-21 07:33:00,76.6,73.4,29.99,SE,141,1.0,3.0,90,0.00,,,0.00,WeatherTracker,2013-06-21 12:33:00,
2013-06-21 07:38:00,76.7,73.5,30.00,SE,124,0.0,8.0,90,0.00,,,0.00,WeatherTracker,2013-06-21 12:38:00,
2013-06-21 07:43:00,76.8,73.3,30.00,SE,129,0.0,8.0,89,0.00,,,0.00,WeatherTracker,2013-06-21 12:43:00,
2013-06-21 07:48:00,76.8,73.3,30.00,ESE,117,1.0,5.0,89,0.00,,,0.00,WeatherTracker,2013-06-21 12:48:00,
2013-06-21 07:53:00,76.9,73.4,30.00,WSW,252,0.0,4.0,89,0.00,,,0.00,WeatherTracker,2013-06-21 12:53:00,
2013-06-21 07:58:00,77.0,73.5,30.00,SSE,159,0.0,3.0,89,0.00,,,0.00,WeatherTracker,2013-06-21 12:58:00,
2013-06-21 08:03:00,77.0,73.5,30.00,South,172,0.0,3.0,89,0.00,,,0.00,WeatherTracker,2013-06-21 13:03:00,
2013-06-21 08:08:00,77.0,73.5,30.00,ENE,65,1.0,4.0,89,0.00,,,0.00,WeatherTracker,2013-06-21 13:08:00,
2013-06-21 08:13:00,77.1,73.6,30.00,West,265,0.0,4.0,89,0.00,,,0.00,WeatherTracker,2013-06-21 13:13:00,
2013-06-21 08:18:00,77.2,73.7,30.01,SSW,205,0.0,4.0,89,0.00,,,0.00,WeatherTracker,2013-06-21 13:18:00,
2013-06-21 08:23:00,77.2,73.7,30.01,SSE,150,1.0,6.0,89,0.00,,,0.00,WeatherTracker,2013-06-21 13:23:00,
2013-06-21 08:28:00,77.3,73.5,30.01,SSW,203,0.0,6.0,88,0.00,,,0.00,WeatherTracker,2013-06-21 13:28:00,
2013-06-21 08:33:00,77.4,73.6,30.01,NNW,329,0.0,4.0,88,0.00,,,0.00,WeatherTracker,2013-06-21 13:33:00,
2013-06-21 08:38:00,77.4,73.6,30.02,SW,225,0.0,8.0,88,0.00,,,0.00,WeatherTracker,2013-06-21 13:38:00,
2013-06-21 08:43:00,77.5,73.7,30.02,WNW,287,0.0,8.0,88,0.00,,,0.00,WeatherTracker,2013-06-21 13:43:00,
2013-06-21 08:48:00,77.6,73.4,30.02,SW,235,1.0,5.0,87,0.00,,,0.00,WeatherTracker,2013-06-21 13:48:00,
2013-06-21 08:54:00,77.7,73.9,30.02,WSW,255,0.0,6.0,88,0.00,,,0.00,WeatherTracker,2013-06-21 13:54:00,
2013-06-21 08:59:00,78.1,73.9,30.02,WNW,291,1.0,6.0,87,0.00,,,0.00,WeatherTracker,2013-06-21 13:59:00,
2013-06-21 09:04:00,78.7,74.1,30.02,South,185,0.0,10.0,86,0.00,,,0.00,WeatherTracker,2013-06-21 14:04:00,
2013-06-21 09:09:00,79.5,74.6,30.02,SW,215,1.0,10.0,85,0.00,,,0.00,WeatherTracker,2013-06-21 14:09:00,
2013-06-21 09:14:00,80.5,74.8,30.02,SE,132,0.0,5.0,83,0.00,,,0.00,WeatherTracker,2013-06-21 14:14:00,
2013-06-21 09:19:00,81.4,75.0,30.02,SE,133,0.0,5.0,81,0.00,,,0.00,WeatherTracker,2013-06-21 14:19:00,
2013-06-21 09:24:00,82.4,75.2,30.02,South,180,2.0,7.0,79,0.00,,,0.00,WeatherTracker,2013-06-21 14:24:00,
2013-06-21 09:29:00,82.9,74.9,30.02,NNE,13,1.0,7.0,77,0.00,,,0.00,WeatherTracker,2013-06-21 14:29:00,
2013-06-21 09:34:00,82.8,74.0,30.02,West,268,0.0,7.0,75,0.00,,,0.00,WeatherTracker,2013-06-21 14:34:00,
2013-06-21 09:39:00,82.9,74.9,30.03,WSW,253,1.0,6.0,77,0.00,,,0.00,WeatherTracker,2013-06-21 14:39:00,
2013-06-21 09:44:00,82.6,74.6,30.03,SW,236,2.0,6.0,77,0.00,,,0.00,WeatherTracker,2013-06-21 14:44:00,
2013-06-21 09:49:00,82.5,74.5,30.03,WSW,240,0.0,6.0,77,0.00,,,0.00,WeatherTracker,2013-06-21 14:49:00,
2013-06-21 09:54:00,82.0,74.1,30.03,WSW,249,1.0,4.0,77,0.00,,,0.00,WeatherTracker,2013-06-21 14:54:00,
2013-06-21 09:59:00,81.2,73.3,30.02,West,274,1.0,5.0,77,0.00,,,0.00,WeatherTracker,2013-06-21 14:59:00,
2013-06-21 10:04:00,81.1,73.6,30.02,West,259,0.0,5.0,78,0.00,,,0.00,WeatherTracker,2013-06-21 15:04:00,
2013-06-21 10:09:00,81.3,73.4,30.02,West,262,0.0,4.0,77,0.00,,,0.00,WeatherTracker,2013-06-21 15:09:00,
2013-06-21 10:14:00,82.3,74.7,30.02,WSW,255,1.0,7.0,78,0.00,,,0.00,WeatherTracker,2013-06-21 15:14:00,
2013-06-21 10:19:00,82.8,73.6,30.02,SW,218,0.0,7.0,74,0.00,,,0.00,WeatherTracker,2013-06-21 15:19:00,
2013-06-21 10:24:00,83.9,74.7,30.02,SSW,194,1.0,5.0,74,0.00,,,0.00,WeatherTracker,2013-06-21 15:24:00,
2013-06-21 10:30:00,85.0,74.5,30.02,SE,134,1.0,5.0,71,0.00,,,0.00,WeatherTracker,2013-06-21 15:30:00,
2013-06-21 10:35:00,85.3,73.5,30.02,SW,219,1.0,5.0,68,0.00,,,0.00,WeatherTracker,2013-06-21 15:35:00,
2013-06-21 10:40:00,85.6,73.4,30.02,South,186,0.0,5.0,67,0.00,,,0.00,WeatherTracker,2013-06-21 15:40:00,
2013-06-21 10:45:00,85.7,73.0,30.02,NNW,338,0.0,7.0,66,0.00,,,0.00,WeatherTracker,2013-06-21 15:45:00,
2013-06-21 10:50:00,86.3,73.6,30.02,WSW,242,0.0,7.0,66,0.00,,,0.00,WeatherTracker,2013-06-21 15:50:00,
2013-06-21 10:55:00,86.6,72.9,30.02,West,259,1.0,4.0,64,0.00,,,0.00,WeatherTracker,2013-06-21 15:55:00,
2013-06-21 11:00:00,85.9,72.7,30.03,SW,221,0.0,4.0,65,0.00,,,0.00,WeatherTracker,2013-06-21 16:00:00,
2013-06-21 11:05:00,85.0,71.9,30.03,West,263,4.0,4.0,65,0.00,,,0.00,WeatherTracker,2013-06-21 16:05:00,
2013-06-21 11:10:00,84.1,71.5,30.03,SW,225,1.0,5.0,66,0.00,,,0.00,WeatherTracker,2013-06-21 16:10:00,
2013-06-21 11:15:00,83.7,72.0,30.03,South,184,0.0,5.0,68,0.00,,,0.00,WeatherTracker,2013-06-21 16:15:00,
2013-06-21 11:20:00,84.5,72.3,30.03,SE,139,2.0,5.0,67,0.00,,,0.00,WeatherTracker,2013-06-21 16:20:00,
2013-06-21 11:25:00,85.3,72.6,30.03,SW,233,1.0,7.0,66,0.00,,,0.00,WeatherTracker,2013-06-21 16:25:00,
2013-06-21 11:30:00,85.6,73.4,30.03,WSW,240,0.0,7.0,67,0.00,,,0.00,WeatherTracker,2013-06-21 16:30:00,
2013-06-21 11:35:00,86.0,72.8,30.02,WSW,256,2.0,4.0,65,0.00,,,0.00,WeatherTracker,2013-06-21 16:35:00,
2013-06-21 11:40:00,85.6,72.0,30.02,SW,226,2.0,4.0,64,0.00,,,0.00,WeatherTracker,2013-06-21 16:40:00,
2013-06-21 11:45:00,86.0,73.3,30.02,West,259,1.0,4.0,66,0.00,,,0.00,WeatherTracker,2013-06-21 16:45:00,
2013-06-21 11:50:00,86.6,72.9,30.02,SW,229,1.0,4.0,64,0.00,,,0.00,WeatherTracker,2013-06-21 16:50:00,
2013-06-21 11:55:00,87.2,73.5,30.02,SW,224,0.0,4.0,64,0.00,,,0.00,WeatherTracker,2013-06-21 16:55:00,
2013-06-21 12:00:00,87.4,71.8,30.02,SSW,212,0.0,8.0,60,0.00,,,0.00,WeatherTracker,2013-06-21 17:00:00,
2013-06-21 12:05:00,87.5,71.9,30.02,SW,214,0.0,8.0,60,0.00,,,0.00,WeatherTracker,2013-06-21 17:05:00,
2013-06-21 12:11:00,87.7,72.1,30.02,WSW,239,0.0,7.0,60,0.00,,,0.00,WeatherTracker,2013-06-21 17:11:00,
2013-06-21 12:16:00,88.0,72.8,30.02,West,263,3.0,4.0,61,0.00,,,0.00,WeatherTracker,2013-06-21 17:16:00,
2013-06-21 12:21:00,88.3,73.1,30.02,West,261,1.0,6.0,61,0.00,,,0.00,WeatherTracker,2013-06-21 17:21:00,
2013-06-21 12:26:00,89.1,72.4,30.02,WSW,242,1.0,6.0,58,0.00,,,0.00,WeatherTracker,2013-06-21 17:26:00,
2013-06-21 12:31:00,89.0,72.8,30.02,SW,222,0.0,7.0,59,0.00,,,0.00,WeatherTracker,2013-06-21 17:31:00,
2013-06-21 12:36:00,89.2,73.0,30.02,SW,234,0.0,7.0,59,0.00,,,0.00,WeatherTracker,2013-06-21 17:36:00,